This is the latest recevied weather packets stored in our database for station/object KN6DHD. If no packets are shown the sender has not sent any weather packets the latest 10 day(s).
| Time | Temp. | Humidity | Pressure | Rain* | Wind** | Luminosity | Snow |
|---|---|---|---|---|---|---|---|
| 1778091078 | 19.44° C | 71% | 1021.2 hPa | 0 mm | - | 312 W/m² | - |
| 1778090774 | 19.44° C | 72% | 1021.1 hPa | 0 mm | - | 308 W/m² | - |
| 1778090471 | 18.89° C | 72% | 1021.4 hPa | 0 mm | - | 310 W/m² | - |
| 1778090167 | 19.44° C | 71% | 1021.4 hPa | 0 mm | - | 301 W/m² | - |
| 1778089863 | 18.89° C | 73% | 1021.2 hPa | 0 mm | - | 298 W/m² | - |
| 1778089562 | 18.89° C | 75% | 1021.4 hPa | 0 mm | - | 284 W/m² | - |
| 1778089258 | 18.33° C | 74% | 1021.2 hPa | 0 mm | - | 271 W/m² | - |
| 1778088956 | 18.33° C | 74% | 1021.1 hPa | 0 mm | - | 262 W/m² | - |
| 1778088653 | 18.33° C | 74% | 1021.3 hPa | 0 mm | - | 263 W/m² | - |
| 1778088350 | 17.78° C | 76% | 1021.3 hPa | 0 mm | - | 255 W/m² | - |
| 1778088046 | 18.33° C | 74% | 1021.4 hPa | 0 mm | - | 252 W/m² | - |
| 1778087743 | 17.78° C | 76% | 1021.5 hPa | 0 mm | - | 256 W/m² | - |
| 1778087440 | 17.22° C | 78% | 1021.4 hPa | 0 mm | - | 244 W/m² | - |
| 1778087138 | 17.22° C | 78% | 1021.4 hPa | 0 mm | - | 228 W/m² | - |
| 1778086830 | 17.22° C | 77% | 1021.6 hPa | 0 mm | - | 216 W/m² | - |
| 1778086528 | 17.22° C | 79% | 1021.5 hPa | 0 mm | - | 203 W/m² | - |
| 1778086224 | 16.67° C | 79% | 1021.5 hPa | 0 mm | - | 196 W/m² | - |
| 1778085921 | 16.67° C | 79% | 1021.2 hPa | 0 mm | - | 180 W/m² | - |
| 1778085619 | 16.67° C | 80% | 1021.3 hPa | 0 mm | - | 176 W/m² | - |
| 1778085314 | 16.67° C | 81% | 1021.2 hPa | 0 mm | - | 175 W/m² | - |
| 1778085010 | 16.11° C | 82% | 1021.3 hPa | 0 mm | - | 164 W/m² | - |
| 1778084707 | 16.11° C | 81% | 1021.3 hPa | 0 mm | - | 158 W/m² | - |
| 1778084404 | 16.67° C | 82% | 1021.3 hPa | 0 mm | - | 151 W/m² | - |
| 1778084101 | 16.11° C | 82% | 1021.3 hPa | 0 mm | - | 146 W/m² | - |
| 1778083798 | 16.11° C | 82% | 1021.5 hPa | 0 mm | - | 131 W/m² | - |
* Rain latest hour (hover to see other rain measurements)
** Current wind speed in m/s (hover to see current wind gust speed)